User: anonymous   Login
Location: Unspecified
(0.0000°N, 0.0000°E)
Time: 13:20:03
(UTC+00:00)
Language:

USA 157 - Orbit

View from above orbital plane
View from above orbital plane
View from above satellite
View from above satellite

Ground track
Ground track

The orbit data is extracted from the following two-line orbital elements,

1 26715U 01009A   21015.77905266  .00000062  00000-0  00000-0 0  9990
2 26715   9.5260  29.5652 0003726 272.9062 276.4490  1.00404802 13117
Epoch (UTC): 15 January 2021 18:41:50
Eccentricity: 0.0003726
inclination: 9.5260°
perigee height: 35733 km
apogee height: 35764 km
right ascension of ascending node: 29.5652°
argument of perigee: 272.9062°
revolutions per day: 1.00404802
mean anomaly at epoch: 276.4490°
orbit number at epoch: 1311

The dashed part of the orbit path shows where the satellite is in the earth's shadow,  

DLR